Salem, OR

10:02 PM PDT on May 26, 2017 (GMT -0700)
McNary

Weather History for KSLE - March, 2012

Change the Weather History Date:

Thursday, March 15, 2012

  Actual Average Record
Temperature  
Mean Temperature 49 °F 47 °F  
Max Temperature 53 °F 57 °F 80 °F (1947)
Min Temperature 45 °F 37 °F 24 °F (1955)
Degree Days  
Heating Degree Days 16 18  
Month to date heating degree days 281 288  
Since 1 July heating degree days 3399 3528  
Cooling Degree Days 0 0  
Month to date cooling degree days 0 0  
Year to date cooling degree days 0 0  
Moisture  
Dew Point 47 °F    
Average Humidity 90    
Maximum Humidity 96    
Minimum Humidity 83    
Precipitation  
Precipitation 0.93 in 0.14 in 1.69 in (1894)
Month to date precipitation 4.52 2.06  
Year to date precipitation 18.98 12.58  
Snow  
Snow 0.00 in - - ()
Month to date snowfall 0.0  
Snow Depth 0.00 in    
Sea Level Pressure  
Sea Level Pressure 29.71 in    
Wind  
Wind Speed 15 mph (South)    
Max Wind Speed 29 mph    
Max Gust Speed 41 mph    
Visibility 8 miles    
Events Rain    
T = Trace of Precipitation, MM = Missing Value Source: NWS Daily Summary

Daily Weather History Graph

Daily Weather History Graph

Search for Another Location

Airport or City:

Trip Planner

Search our weather history database for the weather conditions in past years. The results will help you decide how hot, cold, wet, or windy it might be!

Date:

Astronomy

Mar. 15, 2012 Rise Set
Actual Time 7:23 AM PDT 7:18 PM PDT
Civil Twilight 6:54 AM PDT 7:48 PM PDT
Nautical Twilight 6:20 AM PDT 8:22 PM PDT
Astronomical Twilight 5:45 AM PDT 8:57 PM PDT
Moon 3:11 AM PDT (3/15) 12:26 PM PDT (3/15)
Length of Visible Light 12h 53m
Length of Day
11h 55m
Last Quarter, 42% of the Moon is Illuminated
Mar 15
Last Quarter
Mar 22
New
Mar 30
First Quarter
Apr 6
Full
Apr 13
Last Quarter

Hourly Weather History & Observations

Time (PDT) Temp. Windchill Dew Point Humidity Pressure Visibility Wind Dir Wind Speed Gust Speed Precip Events Conditions
12:56 AM 48.9 °F - 46.0 °F 90% 29.74 in 10.0 mi South 15.0 mph 24.2 mph 0.01 in Rain Light Rain
1:56 AM 50.0 °F - 46.0 °F 86% 29.73 in 10.0 mi South 18.4 mph 25.3 mph 0.00 in Rain Light Rain
2:56 AM 50.0 °F - 46.9 °F 89% 29.72 in 9.0 mi South 19.6 mph 34.5 mph 0.01 in Rain Light Rain
3:56 AM 51.1 °F - 46.9 °F 86% 29.69 in 10.0 mi South 20.7 mph 32.2 mph 0.01 in Rain Light Rain
4:56 AM 51.1 °F - 46.0 °F 83% 29.66 in 10.0 mi South 21.9 mph 29.9 mph 0.01 in   Overcast
5:56 AM 52.0 °F - 46.0 °F 80% 29.63 in 10.0 mi South 19.6 mph 25.3 mph N/A   Overcast
6:56 AM 51.1 °F - 46.9 °F 86% 29.64 in 10.0 mi South 16.1 mph 24.2 mph 0.06 in Rain Rain
8:56 AM 51.1 °F - 48.0 °F 89% 29.65 in 9.0 mi South 18.4 mph 29.9 mph 0.10 in Rain Rain
9:56 AM 52.0 °F - 48.0 °F 86% 29.66 in 6.0 mi South 21.9 mph 36.8 mph 0.03 in Rain Rain
10:07 AM 51.8 °F - 48.2 °F 88% 29.66 in 2.5 mi South 24.2 mph 38.0 mph 0.00 in Rain Rain
10:56 AM 53.1 °F - 48.9 °F 86% 29.68 in 2.5 mi South 21.9 mph 33.4 mph 0.06 in Rain Rain
10:58 AM 53.6 °F - 50.0 °F 88% 29.67 in 2.0 mi South 23.0 mph 31.1 mph 0.00 in Rain Rain
11:56 AM 52.0 °F - 50.0 °F 93% 29.71 in 2.5 mi SW 16.1 mph 23.0 mph 0.23 in Rain Heavy Rain
1:46 PM 51.8 °F - 46.4 °F 82% 29.74 in 10.0 mi SW 13.8 mph 19.6 mph 0.01 in Rain Light Rain
1:56 PM 52.0 °F - 46.9 °F 83% 29.74 in 10.0 mi SW 12.7 mph 16.1 mph 0.01 in Rain Light Rain
2:56 PM 51.1 °F - 46.9 °F 86% 29.73 in 10.0 mi SSW 10.4 mph - 0.02 in Rain Light Rain
3:56 PM 52.0 °F - 48.0 °F 86% 29.73 in 10.0 mi SSW 5.8 mph - 0.01 in   Overcast
4:27 PM 51.8 °F - 48.2 °F 88% 29.74 in 3.0 mi SW 12.7 mph 19.6 mph 0.02 in Rain Heavy Rain
4:40 PM 51.8 °F - 48.2 °F 88% 29.73 in 3.0 mi South 10.4 mph - 0.07 in Rain Heavy Rain
4:54 PM 51.8 °F - 48.2 °F 88% 29.73 in 10.0 mi South 10.4 mph - 0.07 in Rain Light Rain
4:56 PM 51.1 °F - 48.0 °F 89% 29.74 in 10.0 mi South 10.4 mph - 0.07 in   Overcast
5:56 PM 51.1 °F - 46.0 °F 83% 29.74 in 10.0 mi South 11.5 mph - N/A   Overcast
6:56 PM 50.0 °F - 46.0 °F 86% 29.73 in 10.0 mi South 10.4 mph - N/A   Overcast
7:56 PM 48.9 °F - 46.0 °F 90% 29.73 in 10.0 mi South 13.8 mph 20.7 mph 0.02 in Rain Light Rain
8:36 PM 48.2 °F - 46.4 °F 93% 29.74 in 8.0 mi SSW 10.4 mph - 0.03 in Rain Light Rain
8:56 PM 48.9 °F - 46.0 °F 90% 29.74 in 10.0 mi South 11.5 mph - 0.04 in   Overcast
9:03 PM 48.2 °F - 46.4 °F 93% 29.74 in 10.0 mi South 12.7 mph - N/A   Overcast
9:22 PM 48.2 °F - 44.6 °F 87% 29.73 in 10.0 mi South 11.5 mph - 0.00 in Rain Light Rain
9:56 PM 46.9 °F - 45.0 °F 93% 29.73 in 10.0 mi South 11.5 mph - 0.00 in   Mostly Cloudy
10:50 PM 46.4 °F 42.9 °F 44.6 °F 93% 29.73 in 5.0 mi West 6.9 mph - 0.02 in Rain Rain
10:56 PM 46.9 °F - 45.0 °F 93% 29.74 in 4.0 mi WSW 8.1 mph - 0.04 in Rain Heavy Rain
11:18 PM 46.4 °F 42.9 °F 42.8 °F 87% 29.73 in 7.0 mi SSW 6.9 mph - 0.02 in Rain Rain